CZ-6A DEB, 54452

Orbit data source: Space-Track

CZ-6A DEB, 54452 is space debris in SSO originally from a launch on Fri, 11 Nov 2022 UTC launched from the Taiyaun Space Center, China (TSC). Debris objects in space refer to the collection of defunct objects orbiting the Earth. Examples of debris include non-operational satellites, rocket bodies, and fragments generated from explosions, collisions, or faulty payload assembly.

Loading next visibility...
Identifier
54452, 2022-151GC
Orbit
SSO
Country
Flag of CNCN / PRC
Related business
Manufacturer
SAST
Mission
Spacecraft
Bus & Motor
Unknown
Mass
Unknown
Launch date (UTC)
2022-11-11 (4 years ago)
Launch vehicle
Unknown
Launch site
Taiyaun Space Center, China (TSC)
Object type
Payload
Rocket body
Debris
Shape & HBR
Unknown shape, 0.1 m
Radar Cross Section
Medium (>0.1 m² and <1 m²)

Expand to show TLE details & history
Last TLE update: 16 hours ago

TLE from 16 hours ago
0 CZ-6A DEB
1 54452U 22151GC  26206.38306332  .00000082  00000-0  94141-4 0  9998
2 54452  98.9879 174.0350 0149307 341.5905  17.9885 13.89063393187350
Epoch: 2026-07-25T09:11Z
TLE epoch observation values (Epoch: 2026-07-25T09:11:36.670Z)
Latitude
0.00002°
Longitude
93.03607°
Altitude
831.109 km
Speed
7.49 km/s
True Right ascension
11h 36m 08s
True Declination
0° 00' 00"
Sunlit
Object was in daylight at epoch
Visualization orbit readout
Latitude
Unknown
Longitude
Unknown
Altitude
Unknown
Speed
Unknown
Apparent Right ascension
Unknown
Apparent Declination
Unknown
Sunlit
N/A
Visualization observer readout
Local Sidereal Time
14:41:30
Azimuth
Unknown
Elevation
Unknown
Doppler factor
Unknown
Orbital elements
Apogee altitude
1,038.23 km
Perigee altitude
820.025 km
Semi-major axis
7,307.264 km
Eccentricity
0.01493
Inclination
98.9879°
RAAN
174.035°
Arg. of periapsis
341.5905°
True anomaly
18.52641°
Mean anomaly
17.9885°
Eccentric anomaly
18.25649°
Mean motion
3.47465 °/min
Orbital period
103.61 mins
BSTAR
0.000094141
Loading maneuver chart data...
Computing Atmospheric mass density...
Loading historical data...
Loading historical data...
Loading historical data...
Loading historical data...
Loading historical data...
Loading historical data...
Loading historical data...

Documentation

Showing up to 5 results
|